This is the latest recevied weather packets stored in our database for station/object DC4THF-13. If no packets are shown the sender has not sent any weather packets the latest 10 day(s).
| Time | Temp. | Humidity | Pressure | Rain* | Wind** | Luminosity | Snow |
|---|---|---|---|---|---|---|---|
| 1777462949 | 15.56° C | 15% | 1024.2 hPa | 0 mm | - | - | - |
| 1777462346 | 15.56° C | 15% | 1024.4 hPa | 0 mm | - | - | - |
| 1777461742 | 15.56° C | 15% | 1024.5 hPa | 0 mm | - | - | - |
| 1777461139 | 15° C | 15% | 1024.5 hPa | 0 mm | - | - | - |
| 1777460595 | 15.56° C | 18% | 1024.6 hPa | 0 mm | - | - | - |
| 1777459991 | 15° C | 18% | 1024.6 hPa | 0 mm | - | - | - |
| 1777459387 | 15° C | 15% | 1024.6 hPa | 0 mm | - | - | - |
| 1777458783 | 15° C | 16% | 1024.7 hPa | 0 mm | - | - | - |
| 1777458180 | 15° C | 15% | 1024.9 hPa | 0 mm | - | - | - |
| 1777457577 | 14.44° C | 15% | 1025 hPa | 0 mm | - | - | - |
| 1777456974 | 14.44° C | 18% | 1025 hPa | 0 mm | - | - | - |
| 1777456371 | 14.44° C | 19% | 1025 hPa | 0 mm | - | - | - |
| 1777455768 | 15° C | 18% | 1025 hPa | 0 mm | - | - | - |
| 1777455164 | 14.44° C | 20% | 1024.9 hPa | 0 mm | - | - | - |
| 1777454559 | 14.44° C | 20% | 1025.2 hPa | 0 mm | - | - | - |
| 1777453955 | 13.89° C | 20% | 1025.3 hPa | 0 mm | - | - | - |
| 1777453352 | 13.33° C | 20% | 1025.3 hPa | 0 mm | - | - | - |
| 1777452748 | 13.89° C | 20% | 1025.4 hPa | 0 mm | - | - | - |
| 1777452144 | 13.33° C | 20% | 1025.5 hPa | 0 mm | - | - | - |
| 1777451541 | 13.33° C | 20% | 1025.6 hPa | 0 mm | - | - | - |
| 1777450937 | 12.78° C | 22% | 1025.6 hPa | 0 mm | - | - | - |
| 1777450394 | 12.78° C | 23% | 1025.6 hPa | 0 mm | - | - | - |
| 1777449791 | 12.22° C | 22% | 1025.7 hPa | 0 mm | - | - | - |
| 1777449188 | 13.33° C | 22% | 1025.6 hPa | 0 mm | - | - | - |
| 1777448585 | 12.78° C | 21% | 1025.7 hPa | 0 mm | - | - | - |
* Rain latest hour (hover to see other rain measurements)
** Current wind speed in m/s (hover to see current wind gust speed)